Location: Eketahuna
(40.6500°S, 175.7000°E)
Time: 19:28:54
(UTC+00:00)

Daily predictions for brighter satellites

Satellite Brightness Start Highest point End
(mag) Time Altitude Azimuth Time Altitude Azimuth Time Altitude Azimuth
USA 59 Rocket 3.9 12:41:40 10° WSW 12:49:23 23° SSW 12:57:00 10° SSE
Cosmos 1980 Rocket 4.5 14:06:20 20° SE 14:06:20 20° SE 14:08:04 10° SE
ATLAS 2AS CENTAUR R/B 3.7 14:27:50 40° ESE 14:27:50 40° ESE 14:32:39 10° SE
USA 59 Rocket 4.0 14:36:40 10° SW 14:43:47 20° S 14:50:17 10° SE
Cosmos 2322 Rocket 4.1 15:07:06 20° NE 15:08:49 23° E 15:13:09 10° SE
H-2A R/B 2.7 15:26:50 49° S 15:26:50 49° S 15:30:41 10° S
Cosmos 1727 Rocket 4.0 15:19:40 10° S 15:25:25 73° SSW 15:25:25 73° SSW
ATLAS CENTAUR R/B 3.8 15:19:37 10° SW 15:28:41 59° SE 15:34:50 10° ENE
Meteor 2-2 Rocket 4.3 15:29:26 10° S 15:35:18 77° E 15:37:07 46° NNE
Meteor 2-3 Rocket 3.7 15:36:32 82° S 15:36:32 82° S 15:42:01 10° S
SL-16 R/B 2.4 15:36:32 63° NE 15:37:03 67° ENE 15:42:44 10° SSE
Cosmos 2278 3.6 15:41:16 86° N 15:41:22 88° ENE 15:47:09 10° SSE
Cosmos 1484 Rocket 4.2 15:43:42 34° SE 15:43:42 34° SE 15:46:21 10° S
Cosmos 1980 Rocket 3.7 15:48:05 24° SSW 15:48:05 24° SSW 15:51:32 10° S
Cosmos 2333 Rocket 3.3 15:48:48 19° NNE 15:52:20 40° ENE 15:57:38 10° SE
Cosmos 1777 Rocket 3.8 15:48:43 10° SSW 15:54:01 85° WNW 15:59:15 10° NNE
CBERS-1 4.4 15:51:18 10° NNE 15:56:23 65° ESE 16:01:33 10° S
Thor Agena Rocket 3.7 15:57:33 55° SW 15:57:33 55° SW 16:01:58 10° SSW
Cosmos 2227 4.3 15:51:37 10° SSW 15:57:29 79° ESE 16:03:15 10° NNE
CZ-2C R/B 3.8 15:52:57 10° S 15:56:26 29° SW 15:56:26 29° SW
Cosmos 1825 Rocket 4.4 15:57:43 26° NNE 15:59:49 48° E 16:04:01 10° SSE
Cosmos 2239 Rocket 4.5 15:59:42 55° W 16:00:12 57° W 16:06:25 10° S
GP-B 4.1 15:59:04 10° SSE 16:03:24 47° E 16:07:40 10° NNE
BlueWalker 3 3.6 16:07:29 24° S 16:08:53 31° SSE 16:12:18 10° E
NOSS 3-1 (A) 3.0 16:07:46 10° SW 16:14:01 76° WNW 16:19:05 10° NNE
Cosmos 2221 3.1 16:11:36 10° S 16:15:55 59° E 16:20:11 10° NNE
Cosmos 468 Rocket 4.5 16:11:55 17° N 16:15:55 61° ENE 16:21:11 10° SSE
Cosmos 1763 Rocket 3.4 16:14:10 39° NNW 16:16:15 84° WSW 16:21:38 10° SSE
ARGOS 3.1 16:11:04 10° NNE 16:16:30 88° WNW 16:22:03 10° SSW
ATLAS 3B R/B 2.7 16:10:47 10° SSW 16:17:00 71° SE 16:23:21 10° NE
ATLAS 2AS CENTAUR R/B 3.4 16:15:16 32° WSW 16:17:02 37° SW 16:23:32 10° SSE
Cosmos 1939 Rocket 3.4 16:18:24 41° SSW 16:18:24 41° SSW 16:21:05 10° SSW
ISS -3.4 16:18:46 61° NE 16:18:46 61° NE 16:22:07 10° ESE
Cosmos 1605 Rocket 4.0 16:17:39 10° N 16:23:45 81° E 16:29:59 10° S
Cosmos 1340 Rocket 3.6 16:21:38 10° SSW 16:24:13 35° SW 16:24:13 35° SW
UNK 3.9 16:21:02 10° SSE 16:25:44 73° ENE 16:30:22 10° N
BREEZE M DEB (TANK) 2.2 16:28:23 46° SSW 16:28:23 46° SSW 16:31:55 10° SE
Cosmos 1602 Rocket 4.4 16:30:00 33° WSW 16:30:00 33° WSW 16:33:25 10° S
Cosmos 1844 3.8 16:25:33 10° SSW 16:31:26 81° ESE 16:37:13 10° NNE
USA 276 4.1 16:32:36 13° SSE 16:32:36 13° SSE 16:33:46 10° SE
SL-16 R/B 2.5 16:28:39 10° S 16:34:53 72° WSW 16:41:03 10° NNW
Cosmos 2360 Rocket 2.1 16:31:07 20° NNW 16:35:12 85° WSW 16:40:57 10° SSE
Meteor 2-6 Rocket 4.4 16:29:42 10° S 16:35:47 85° E 16:41:45 10° N
USA 59 Rocket 3.2 16:28:13 10° SSW 16:37:18 36° SE 16:44:33 10° E
Cosmos 1535 Rocket 4.4 16:32:06 10° NNW 16:38:11 67° W 16:44:24 10° S
Cosmos 1354 Rocket 4.4 16:34:05 10° SW 16:38:59 39° WNW 16:43:49 10° N
ATLAS CENTAUR R/B 4.5 16:38:35 10° NE 16:39:58 11° ENE 16:41:19 10° E
BREEZE-M DEB (TANK) 3.8 16:37:44 23° SW 16:40:00 50° SSE 16:49:20 10° E
Cosmos 1812 Rocket 4.2 16:36:29 10° SSW 16:40:35 34° W 16:41:05 33° WNW
USA 305 4.4 16:42:46 18° SW 16:43:46 19° SSW 16:46:41 10° SSE
USA 307 3.4 16:43:31 29° SW 16:44:08 31° SSW 16:47:32 10° SE
ARIANE 5 R/B 2.7 16:39:54 10° NNE 16:44:54 74° ESE 16:49:58 10° S
Cosmos 1076 Rocket 3.9 16:41:33 10° N 16:45:52 67° E 16:50:16 10° SSE
USA 281 3.4 16:39:29 10° SSE 16:46:08 74° ENE 16:52:43 10° NNW
Cosmos 2219 Rocket 2.6 16:42:26 10° N 16:47:58 64° ENE 16:53:33 10° SSE
Cosmos 2322 Rocket 2.4 16:48:56 21° NW 16:52:27 49° WSW 16:57:57 10° SSE
SL-08 RB Rocket 3.8 16:50:48 10° N 16:55:11 50° W 16:59:40 10° SSW
DMSP B5D2-2 4.1 16:50:47 10° SSE 16:56:05 88° E 17:01:19 10° NNW
USA 229 DEB 3.8 16:51:58 10° SSW 16:58:33 68° SE 17:04:30 10° NE
USA 229 3.8 16:52:18 10° SSW 16:58:52 68° SE 17:04:52 10° NE
Cosmos 1844 Rocket 2.8 16:53:26 10° SSW 16:58:53 53° WNW 17:04:17 10° N
Cosmos 1953 Rocket 3.6 16:56:15 10° NNW 17:00:41 59° W 17:05:11 10° S
Lacrosse 4 Rocket 2.6 16:56:57 10° SSW 17:00:46 42° ESE 17:04:36 10° NE
H-2A R/B 2.1 16:58:07 10° N 17:01:04 55° W 17:04:04 10° SSW
SJ-11-01 4.2 16:58:32 10° N 17:03:11 70° WNW 17:07:54 10° SSW
H-2A R/B 4.0 17:07:21 11° WSW 17:07:21 11° WSW 17:07:51 10° WSW
USA 267 3.3 16:59:34 10° SE 17:06:11 84° SW 17:12:45 10° NW
CZ-2D R/B 3.9 17:04:15 10° NNE 17:08:08 62° ESE 17:12:03 10° S
Cosmos 2151 3.6 17:07:00 10° NW 17:10:56 36° WSW 17:14:55 10° S
ATLAS CENTAUR R/B 3.6 17:09:50 10° SW 17:16:56 35° WNW 17:21:53 10° N
Cosmos 540 Rocket 4.3 17:13:06 12° WNW 17:17:15 32° WSW 17:21:56 10° S
Cosmos 292 Rocket 4.5 17:14:05 10° SW 17:18:23 32° W 17:22:38 10° NNW
NOAA 12 4.5 17:13:39 10° N 17:18:41 42° W 17:23:47 10° SSW
Cosmos 1898 Rocket 3.5 17:16:20 10° SSW 17:21:37 81° WNW 17:26:52 10° NNE
SL-16 R/B 3.6 17:18:24 13° W 17:21:40 20° SW 17:25:48 10° S
Cosmos 1626 3.2 17:24:11 10° S 17:27:05 39° E 17:29:56 10° NNE
SL-19 R/B 4.4 17:22:14 10° N 17:28:02 78° WNW 17:34:14 10° SSW
SMAP 3.9 17:24:42 10° NNE 17:29:18 58° ESE 17:33:58 10° S
Cosmos 2100 Rocket 4.0 17:23:13 10° N 17:29:23 85° W 17:35:42 10° S
Timation 2 Rocket 4.0 17:23:16 10° SSW 17:29:47 82° WNW 17:35:56 10° NNE
Cosmos 372 Rocket 3.9 17:26:16 10° SSW 17:31:26 73° WNW 17:36:31 10° N
Cosmos 1459 Rocket 4.1 17:25:15 10° N 17:31:39 90° WNW 17:38:06 10° S
Meteor 2-8 Rocket 4.5 17:26:55 10° N 17:33:01 86° W 17:39:12 10° S
Cosmos 2333 Rocket 3.1 17:31:46 10° WNW 17:36:41 30° SW 17:41:41 10° S
USA 234 4.1 17:32:06 10° ENE 17:38:26 53° SSE 17:44:47 10° SW
CZ-2D R/B 3.3 17:37:17 10° N 17:40:43 46° W 17:44:13 10° SSW
Centaur D AC-28 3.6 17:38:40 10° NW 17:41:17 15° NNW 17:43:18 10° NNE
Meteor 1-20 Rocket 4.4 17:38:40 10° NNW 17:44:14 53° WSW 17:49:47 10° S
Meteor 1-25 Rocket 4.3 17:40:34 10° NNW 17:46:18 64° WSW 17:52:10 10° S
Cosmos 2322 3.8 17:40:47 10° NNW 17:46:32 79° WSW 17:52:20 10° SSE
Cosmos 2173 Rocket 4.0 17:40:40 10° NNW 17:46:43 65° W 17:52:51 10° S
